Weather History for KOSC - September, 2013

Change the Weather History Date:

Tuesday, September 17, 2013

  Actual Average Record
Temperature  
Mean Temperature 48 °F -  
Max Temperature 65 °F 69 °F 82 °F (2003)
Min Temperature 31 °F 48 °F 31 °F (2013)
Degree Days  
Heating Degree Days 17    
Moisture  
Dew Point 41 °F    
Average Humidity 78    
Maximum Humidity 99    
Minimum Humidity 43    
Precipitation  
Precipitation 0.00 in - - ()
Sea Level Pressure  
Sea Level Pressure 30.35 in    
Wind  
Wind Speed 3 mph (SSE)    
Max Wind Speed 13 mph    
Max Gust Speed 18 mph    
Visibility 10 miles    
Events      
Averages and records for this station are not official NWS values.
T = Trace of Precipitation, MM = Missing Value Source: NWS Daily Summary

Daily Weather History Graph

Daily Weather History Graph

Search for Another Location

Airport or City:

Trip Planner

Search our weather history database for the weather conditions in past years. The results will help you decide how hot, cold, wet, or windy it might be!

Date:

Astronomy

Sep. 17, 2013 Rise Set
Actual Time 7:15 AM EDT 7:39 PM EDT
Civil Twilight 6:45 AM EDT 8:09 PM EDT
Nautical Twilight 6:11 AM EDT 8:43 PM EDT
Astronomical Twilight 5:36 AM EDT 9:18 PM EDT
Moon 6:28 PM EDT (9/17) 5:05 AM EDT (9/17)
Length of Visible Light 13h 23m
Length of Day
12h 24m
Waxing Gibbous, 96% of the Moon is Illuminated
Sep 17
Waxing Gibbous
Sep 19
Full
Sep 26
Last Quarter
Oct 4
New
Oct 11
First Quarter

Hourly Weather History & Observations

Time (EDT) Temp. Windchill Dew Point Humidity Pressure Visibility Wind Dir Wind Speed Gust Speed Precip Events Conditions
12:13 AM 36.7 °F 34.1 °F 34.7 °F 93% 30.41 in 10.0 mi WNW 3.5 mph - N/A   Clear
12:34 AM 35.8 °F - 33.6 °F 92% 30.41 in 10.0 mi Calm Calm - N/A   Clear
12:54 AM 35.1 °F - 33.6 °F 94% 30.41 in 10.0 mi Calm Calm - N/A   Clear
1:13 AM 34.3 °F - 32.9 °F 94% 30.41 in 10.0 mi Calm Calm - N/A   Clear
1:34 AM 34.3 °F - 33.1 °F 95% 30.41 in 10.0 mi Calm Calm - N/A   Clear
1:53 AM 34.2 °F - 33.1 °F 96% 30.41 in 10.0 mi Calm Calm - N/A   Clear
2:14 AM 34.0 °F - 32.5 °F 94% 30.41 in 10.0 mi Calm Calm - N/A   Clear
2:34 AM 34.2 °F - 32.9 °F 95% 30.41 in 10.0 mi Calm Calm - N/A   Clear
2:53 AM 34.0 °F - 32.9 °F 96% 30.41 in 10.0 mi Calm Calm - N/A   Clear
3:14 AM 33.8 °F - 32.9 °F 96% 30.41 in 10.0 mi Calm Calm - N/A   Clear
3:34 AM 33.4 °F - 32.0 °F 94% 30.41 in 10.0 mi Calm Calm - N/A   Clear
3:53 AM 33.8 °F - 32.5 °F 95% 30.41 in 10.0 mi Calm Calm - N/A   Clear
4:14 AM 33.3 °F - 32.0 °F 95% 30.41 in 10.0 mi Calm Calm - N/A   Clear
4:34 AM 33.1 °F - 31.6 °F 94% 30.41 in 10.0 mi Calm Calm - N/A   Clear
4:53 AM 33.4 °F - 32.5 °F 96% 30.42 in 10.0 mi Calm Calm - N/A   Clear
5:14 AM 33.3 °F - 32.2 °F 96% 30.41 in 10.0 mi Calm Calm - N/A   Clear
5:34 AM 33.3 °F - 32.4 °F 96% 30.41 in 10.0 mi Calm Calm - N/A   Clear
5:53 AM 32.7 °F - 32.0 °F 97% 30.41 in 10.0 mi Calm Calm - N/A   Clear
6:14 AM 31.6 °F - 30.0 °F 94% 30.42 in 10.0 mi Calm Calm - N/A   Clear
6:34 AM 32.0 °F - 31.1 °F 96% 30.42 in 10.0 mi Calm Calm - N/A   Clear
6:53 AM 32.0 °F - 31.5 °F 98% 30.42 in 10.0 mi Calm Calm - N/A   Clear
7:14 AM 32.0 °F - 31.6 °F 99% 30.42 in 10.0 mi Calm Calm - N/A   Clear
7:34 AM 32.4 °F - 32.0 °F 99% 30.42 in 10.0 mi Calm Calm - N/A   Clear
7:53 AM 32.7 °F - 32.0 °F 97% 30.43 in 10.0 mi Calm Calm - N/A   Scattered Clouds
8:14 AM 34.9 °F - 33.8 °F 96% 30.43 in 10.0 mi Calm Calm - N/A   Mostly Cloudy
8:34 AM 37.2 °F - 36.0 °F 95% 30.42 in 10.0 mi Calm Calm - N/A   Overcast
8:53 AM 39.9 °F - 37.8 °F 92% 30.43 in 10.0 mi Calm Calm - N/A   Mostly Cloudy
9:14 AM 42.4 °F - 39.7 °F 90% 30.43 in 10.0 mi Calm Calm - N/A   Overcast
9:34 AM 46.6 °F - 42.4 °F 85% 30.43 in 10.0 mi Calm Calm - N/A   Overcast
9:53 AM 50.5 °F - 44.2 °F 79% 30.43 in 10.0 mi Calm Calm - N/A   Scattered Clouds
10:14 AM 53.4 °F - 44.8 °F 73% 30.43 in 10.0 mi Calm Calm - N/A   Clear
10:34 AM 55.9 °F - 45.5 °F 68% 30.42 in 10.0 mi SSE 6.9 mph - N/A   Scattered Clouds
10:53 AM 56.7 °F - 44.8 °F 64% 30.42 in 10.0 mi South 6.9 mph - N/A   Scattered Clouds
11:14 AM 57.7 °F - 45.0 °F 62% 30.41 in 10.0 mi SSW 8.1 mph - N/A   Scattered Clouds
11:33 AM 58.5 °F - 43.7 °F 58% 30.41 in 10.0 mi SSE 9.2 mph - N/A   Scattered Clouds
11:53 AM 58.6 °F - 43.3 °F 57% 30.40 in 10.0 mi SE 10.4 mph - N/A   Clear
12:14 PM 59.7 °F - 43.2 °F 54% 30.40 in 10.0 mi South 8.1 mph - N/A   Clear
12:33 PM 60.8 °F - 43.3 °F 53% 30.39 in 10.0 mi South 6.9 mph - N/A   Clear
12:53 PM 61.2 °F - 43.3 °F 52% 30.39 in 10.0 mi South 12.7 mph - N/A   Clear
1:14 PM 61.9 °F - 42.8 °F 50% 30.38 in 10.0 mi SSE 12.7 mph - N/A   Clear
1:34 PM 62.6 °F - 42.1 °F 47% 30.37 in 10.0 mi SSW 10.4 mph - N/A   Clear
1:54 PM 63.1 °F - 42.6 °F 47% 30.36 in 10.0 mi South 9.2 mph - N/A   Clear
2:14 PM 63.7 °F - 43.9 °F 48% 30.34 in 10.0 mi South 8.1 mph - N/A   Clear
2:33 PM 63.7 °F - 44.8 °F 50% 30.34 in 10.0 mi South 12.7 mph 16.1 mph N/A   Clear
2:54 PM 63.7 °F - 44.4 °F 50% 30.33 in 10.0 mi South 11.5 mph 18.4 mph N/A   Clear
3:14 PM 64.8 °F - 44.2 °F 47% 30.32 in 10.0 mi South 10.4 mph - N/A   Clear
3:33 PM 65.3 °F - 42.4 °F 43% 30.31 in 10.0 mi South 10.4 mph 16.1 mph N/A   Clear
3:54 PM 65.7 °F - 46.0 °F 49% 30.30 in 10.0 mi SSW 8.1 mph - N/A   Clear
4:14 PM 65.3 °F - 46.8 °F 51% 30.30 in 10.0 mi South 9.2 mph - N/A   Scattered Clouds
4:33 PM 63.9 °F - 48.4 °F 57% 30.29 in 10.0 mi ESE 10.4 mph - N/A   Clear
4:54 PM 63.1 °F - 48.7 °F 59% 30.28 in 10.0 mi ESE 10.4 mph - N/A   Clear
5:14 PM 62.6 °F - 48.9 °F 61% 30.28 in 10.0 mi SE 8.1 mph - N/A   Clear
5:33 PM 62.2 °F - 49.3 °F 63% 30.28 in 10.0 mi ESE 9.2 mph - N/A   Clear
5:54 PM 62.2 °F - 48.0 °F 60% 30.28 in 10.0 mi ESE 9.2 mph - N/A   Clear
6:13 PM 61.7 °F - 49.3 °F 64% 30.28 in 10.0 mi ESE 6.9 mph - N/A   Clear
6:34 PM 61.0 °F - 50.4 °F 68% 30.27 in 10.0 mi ESE 6.9 mph - N/A   Clear
6:54 PM 60.3 °F - 50.9 °F 71% 30.26 in 10.0 mi SE 5.8 mph - N/A   Clear
7:13 PM 59.7 °F - 51.4 °F 74% 30.25 in 10.0 mi ESE 4.6 mph - N/A   Clear
7:34 PM 59.0 °F - 51.8 °F 77% 30.25 in 10.0 mi ESE 4.6 mph - N/A   Clear
7:54 PM 58.3 °F - 52.0 °F 80% 30.24 in 10.0 mi ESE 3.5 mph - N/A   Clear
8:13 PM 58.5 °F - 52.7 °F 81% 30.24 in 10.0 mi Calm Calm - N/A   Clear
8:34 PM 57.2 °F - 52.2 °F 83% 30.23 in 10.0 mi ESE 3.5 mph - N/A   Clear
8:54 PM 56.7 °F - 51.8 °F 84% 30.23 in 10.0 mi Calm Calm - N/A   Clear
9:13 PM 52.5 °F - 49.1 °F 88% 30.23 in 10.0 mi Calm Calm - N/A   Clear
9:34 PM 49.8 °F - 46.6 °F 89% 30.22 in 10.0 mi Calm Calm - N/A   Clear
9:53 PM 48.4 °F - 46.0 °F 92% 30.22 in 10.0 mi Calm Calm - N/A   Clear
10:13 PM 47.8 °F - 45.1 °F 90% 30.22 in 10.0 mi Calm Calm - N/A   Clear
10:34 PM 46.6 °F - 43.3 °F 88% 30.22 in 10.0 mi SSW 3.5 mph - N/A   Clear
10:53 PM 47.3 °F - 44.6 °F 90% 30.22 in 10.0 mi SSW 3.5 mph - N/A   Clear
11:14 PM 46.4 °F 44.3 °F 43.5 °F 90% 30.22 in 10.0 mi WSW 4.6 mph - N/A   Clear
11:34 PM 45.5 °F 44.2 °F 41.7 °F 87% 30.22 in 10.0 mi SW 3.5 mph - N/A   Clear
11:53 PM 46.4 °F 45.2 °F 43.3 °F 89% 30.22 in 10.0 mi SW 3.5 mph - N/A   Clear